Home > Weather > Andorra La Vella > Past weeks

Flag for Andorra Weather for the Past 2 Weeks in Andorra La Vella, Andorra

Now
46 °F

Passing clouds.


Feels Like: 44 °F
Forecast: 29 / 41 °F
Wind: 6 mph from Northwest

Location: Carcassonne Airport

Current Time: Apr 30, 2016 at 6:19:52 AM

Latest Report: Apr 30, 2016 at 5:30 AM


Visibility: N/A

Pressure: 30.01 "Hg (26.48 "Hg at 1031m altitude)

Humidity: 82%

Dew Point: 41 °F

Location of Andorra La VellaLocation

Historic Weather in Andorra La Vella — Graph

°F

Andorra La Vella Temperature Yesterday

Maximum temperature yesterday: 66 °F (at 5:00 PM)
Minimum temperature yesterday: 45 °F (at 6:30 AM)
Average temperature yesterday: 56 °F

High & Low Weather Summary for the Past Weeks

 TemperatureHumidityPressure
High73 °F (Apr 19, 3:30 PM)100% (Apr 16, 5:30 AM)30.21 "Hg (Apr 16, 5:30 AM)
Low41 °F (Apr 19, 1:30 AM)20% (Apr 19, 2:30 PM)29.65 "Hg (Apr 16, 5:30 PM)
Average56 °F69%29.99 "Hg
* Reported Apr 15 4:00 AM — Apr 30 4:30 AM, Andorra La Vella, Weather by CustomWeather, © 2016

Note: Actual official high and low records may vary slightly from our data, if they occured in-between our weather recording intervals... More about our weather records

Advertising

Andorra La Vella Weather History for the Previous 24 Hours

Scroll right to see more
 ConditionsComfort  
Time TempWeatherWind HumidityBarometerVisibility
4:30 AM
Sat, Apr 30
46 °FClear.2 mph82%29.98 "Hg10 mi
4:00 AM48 °FClear.2 mph76%29.98 "Hg10 mi
3:30 AM48 °FClear.3 mph71%29.98 "Hg10 mi
3:00 AM50 °FClear.2 mph71%30.01 "Hg10 mi
2:30 AM50 °FClear.1 mph71%30.01 "Hg10 mi
1:30 AM50 °FOvercast.No wind76%30.04 "HgN/A
1:00 AM52 °FMostly cloudy.No wind67%30.04 "HgN/A
12:30 AM52 °FOvercast.2 mph67%30.04 "HgN/A
12:00 AM52 °FMostly cloudy.1 mph67%30.04 "HgN/A
11:30 PM
Fri, Apr 29
52 °FClear.No wind67%30.04 "Hg10 mi
11:00 PM52 °FClear.2 mph62%30.04 "Hg10 mi
10:30 PM54 °FClear.2 mph58%30.04 "Hg10 mi
10:00 PM55 °FClear.3 mph51%30.04 "Hg10 mi
9:30 PM57 °FSunny.5 mph48%30.01 "Hg10 mi
9:00 PM59 °FPassing clouds.7 mph45%30.01 "HgN/A
8:30 PM61 °FSunny.8 mph42%30.01 "Hg10 mi
8:00 PM63 °FSunny.8 mph39%30.01 "Hg10 mi
7:30 PM63 °FPassing clouds.10 mph42%30.01 "HgN/A
7:00 PM64 °FSunny.12 mph37%30.01 "Hg10 mi
6:30 PM64 °FSunny.13 mph37%30.01 "Hg10 mi
6:00 PM64 °FPassing clouds.12 mph40%30.01 "HgN/A
5:30 PM66 °FPassing clouds.10 mph37%30.01 "HgN/A
5:00 PM66 °FPassing clouds.10 mph37%30.01 "HgN/A
4:30 PM64 °FPassing clouds.9 mph37%30.04 "HgN/A
4:00 PM64 °FPassing clouds.8 mph40%30.04 "HgN/A
3:30 PM64 °FPassing clouds.7 mph40%30.04 "HgN/A
3:00 PM63 °FPassing clouds.9 mph39%30.07 "HgN/A
2:30 PM63 °FPassing clouds.8 mph39%30.07 "HgN/A
2:00 PM63 °FPassing clouds.7 mph39%30.07 "HgN/A
1:30 PM61 °FPassing clouds.8 mph42%30.07 "HgN/A
1:00 PM61 °FPassing clouds.7 mph42%30.09 "HgN/A
12:30 PM59 °FSunny.7 mph42%30.09 "Hg10 mi
12:00 PM59 °FPassing clouds.8 mph42%30.09 "HgN/A
11:30 AM59 °FPassing clouds.7 mph42%30.09 "HgN/A
11:00 AM57 °FPassing clouds.7 mph44%30.12 "HgN/A
10:30 AM55 °FPassing clouds.7 mph51%30.12 "HgN/A
10:00 AM54 °FPassing clouds.7 mph54%30.12 "HgN/A
9:30 AM54 °FPassing clouds.7 mph58%30.12 "HgN/A
9:00 AM52 °FPassing clouds.8 mph58%30.12 "HgN/A
8:30 AM50 °FPassing clouds.8 mph62%30.09 "HgN/A
8:00 AM48 °FPartly sunny.8 mph66%30.09 "HgN/A
6:30 AM45 °FPassing clouds.5 mph71%30.09 "HgN/A
6:00 AM46 °FPassing clouds.6 mph66%30.07 "HgN/A
Weather by CustomWeather, © 2016

See weather overviewHow to use our weather pages